Wind_Speed
22 22 22 22 22 22 22 22 22 22 22 21 21 20 19 19 18 17 16 16 16 16 16 17 17 17 17 16 15 15 15 15 15 16 14 14 15 16 16 16 17 17 17 17
23 23 23 23 23 22 22 23 23 23 23 22 22 21 21 21 20 19 18 17 17 17 17 17 17 17 16 15 14 15 15 15 16 16 15 16 15 16 16 16 17 17 17 17
24 24 24 25 24 23 23 22 22 22 22 22 22 22 21 21 20 20 19 19 19 18 18 18 17 17 16 15 15 15 15 15 15 16 16 16 16 16 16 17 16 16 16 16
25 24 26 25 23 23 23 23 23 23 22 22 22 22 22 22 22 21 21 21 20 20 19 18 17 17 16 15 15 15 16 16 17 17 17 17 18 17 17 17 16 16 15 15
25 25 25 25 23 23 24 24 23 23 23 22 22 23 23 23 23 23 22 22 22 21 20 19 18 17 17 17 17 17 17 17 17 17 17 18 18 18 18 17 17 16 15 15
24 24 25 25 24 22 23 24 23 23 23 24 23 24 25 25 24 24 23 23 22 22 21 21 20 20 20 19 19 18 18 17 17 18 18 18 19 19 18 17 17 16 15 14
24 25 27 26 24 23 23 24 23 23 23 23 24 24 24 24 24 24 24 23 23 23 22 21 21 20 20 19 19 20 19 19 18 18 19 19 19 18 18 18 17 16 15 14
25 25 27 25 25 25 24 24 23 23 23 23 24 24 24 24 24 24 24 23 23 23 23 23 22 21 20 20 20 20 20 20 20 19 19 20 19 19 18 18 17 16 15 14
26 26 25 24 24 24 24 24 24 22 22 23 24 24 24 24 24 24 24 24 24 24 24 24 23 22 22 22 22 22 21 21 21 21 20 20 19 19 19 18 17 17 16 14
25 25 25 24 24 24 24 23 22 22 22 23 24 23 23 23 24 24 25 24 25 25 25 25 24 24 25 24 23 23 23 23 23 23 22 21 21 20 20 19 17 16 15 14
24 24 25 24 24 24 24 24 24 23 23 22 23 23 24 24 24 24 24 24 25 25 24 24 25 25 25 24 23 23 23 23 24 24 23 22 21 20 20 18 17 16 16 16
25 24 24 24 25 25 24 24 24 24 23 23 23 24 24 25 25 25 24 25 25 25 24 24 24 24 24 24 23 23 23 23 23 23 22 21 21 20 20 19 18 18 17 17
25 25 25 24 25 26 25 25 25 25 25 24 24 24 23 24 24 24 24 23 23 23 24 24 23 23 24 24 24 23 23 23 23 22 21 20 20 21 20 19 19 18 18 18
25 25 25 25 26 26 26 26 26 26 25 25 24 24 24 24 24 24 24 24 24 23 23 23 24 24 24 25 24 24 23 23 22 21 20 20 20 20 20 19 19 18 18 18
25 25 26 26 26 26 26 26 26 25 25 26 26 25 25 25 25 24 24 24 24 24 24 23 23 24 24 24 24 24 23 22 22 22 22 21 20 20 19 19 18 18 18 17
24 25 25 25 26 26 26 26 26 26 26 27 27 27 26 26 25 25 25 25 25 25 25 24 24 24 24 24 24 24 23 23 23 23 22 22 21 21 21 20 19 19 19 18
24 24 25 25 26 26 26 26 26 26 26 27 27 27 27 26 25 24 24 24 24 24 24 24 24 23 23 22 23 23 23 23 22 22 22 22 22 22 21 20 19 20 20 20
24 25 25 25 25 25 26 26 27 27 27 27 28 28 27 26 25 24 25 24 24 24 24 24 23 22 22 22 22 22 22 23 22 22 22 22 22 22 22 21 20 20 21 21
23 24 24 24 25 25 26 26 27 28 27 28 27 27 27 27 26 25 24 25 24 23 23 23 23 22 22 22 23 22 22 22 22 22 22 22 22 22 22 22 21 21 21 21
21 22 22 23 24 25 25 26 26 27 27 26 27 27 27 27 27 26 25 24 24 23 23 23 22 22 22 23 22 22 22 22 22 22 22 21 22 22 22 22 22 21 20 19
19 20 21 22 22 23 24 24 24 24 24 25 25 26 26 26 26 26 25 25 25 25 24 24 24 23 22 22 22 22 22 22 22 22 23 22 22 21 22 22 22 21 20 19
19 19 20 21 22 22 23 23 23 23 23 23 24 24 24 24 24 25 25 26 26 26 25 25 24 23 23 22 21 21 21 22 23 23 23 23 22 21 21 21 21 21 20 20
19 19 20 20 21 21 21 21 21 21 21 22 22 22 23 23 23 24 24 25 25 26 26 25 24 24 23 23 23 23 23 23 23 23 23 24 23 22 21 20 20 20 20 20
17 18 18 19 19 19 19 18 18 19 19 20 20 21 21 21 22 22 23 23 24 24 24 25 24 23 24 24 24 24 24 23 23 23 23 23 24 24 23 21 20 19 20 20
17 17 17 17 17 17 18 17 17 17 17 18 18 19 20 20 21 21 21 22 23 23 23 24 24 24 24 24 24 24 24 24 24 23 23 23 23 22 22 21 20 19 19 19
15 15 15 15 16 16 17 16 17 17 17 17 18 18 18 19 20 21 21 21 21 22 22 23 24 24 23 24 24 24 24 24 24 23 23 22 22 22 21 21 20 20 19 19
14 14 14 14 15 16 16 16 16 16 17 17 18 18 18 19 19 20 20 21 21 21 22 23 23 23 23 23 23 23 23 22 22 22 21 20 20 20 20 21 21 21 20 19
Wind_Direction
243 245 248 250 250 250 253 256 259 260 259 258 260 260 262 264 267 267 268 272 272 273 278 282 284 285 287 289 292 295 295 296 299 304 308 311 312 311 309 309 310 308 309 312
248 248 249 250 249 251 255 256 257 259 259 258 259 259 261 263 263 265 268 272 273 273 276 280 282 283 284 285 289 290 292 294 294 298 302 306 308 308 308 309 311 311 309 310
249 250 251 249 249 252 255 256 259 261 260 259 259 260 260 261 262 265 268 270 271 272 274 275 277 279 281 284 286 288 289 291 295 296 298 302 304 305 306 308 312 312 312 314
249 249 249 251 250 253 255 257 259 260 260 258 257 257 258 260 261 264 268 269 270 269 271 270 271 273 276 281 285 289 291 291 294 295 297 299 301 302 303 303 307 308 310 313
250 251 253 253 252 254 255 256 257 259 258 258 259 259 259 260 262 266 267 268 268 266 267 269 268 270 274 277 279 283 287 289 292 293 294 297 298 297 298 298 300 303 305 310
251 251 253 253 255 255 257 257 256 258 257 257 258 260 261 262 263 264 266 266 266 267 267 266 266 268 273 276 280 282 285 288 290 292 293 294 297 297 296 296 296 297 300 304
250 252 254 253 255 255 257 258 259 259 257 256 258 259 261 262 261 261 262 264 266 267 268 266 267 268 272 275 278 279 282 285 287 289 291 293 295 298 298 294 292 293 297 300
249 250 252 255 255 254 256 258 258 258 255 257 258 259 260 261 260 261 263 266 268 268 268 268 268 269 270 273 275 277 279 283 286 288 288 290 293 296 296 296 293 290 292 295
248 251 254 255 257 256 256 257 257 256 257 260 260 261 261 262 264 264 266 268 268 268 268 267 268 270 269 271 273 275 276 279 283 284 285 288 290 292 293 295 295 291 290 289
250 251 252 254 255 255 255 257 258 257 257 259 261 260 260 262 264 265 267 268 269 269 267 266 267 267 267 269 272 274 275 277 280 281 282 285 288 288 289 293 293 290 287 286
250 251 252 252 253 254 254 255 258 260 258 259 261 261 261 263 265 266 266 266 267 267 266 267 267 266 266 267 270 272 274 276 277 278 279 282 284 286 288 289 286 284 284 284
252 252 252 251 251 252 254 257 259 260 259 256 257 260 262 263 265 264 265 266 267 267 267 268 268 267 266 267 270 272 274 276 277 278 279 279 281 284 287 285 284 284 281 281
252 252 254 253 253 254 255 256 257 258 260 261 260 260 260 263 264 263 264 267 267 267 267 268 268 267 267 268 270 272 273 274 274 273 275 279 281 282 282 281 280 281 280 277
251 252 254 255 254 254 256 258 259 259 260 260 260 259 260 262 262 262 264 265 266 267 266 267 268 269 269 269 270 270 271 271 270 270 272 275 277 278 278 277 277 277 277 274
249 251 253 255 255 256 257 258 258 260 261 260 259 258 258 259 260 262 264 264 264 264 265 267 268 269 271 270 268 267 266 265 266 269 271 273 276 275 275 274 273 273 274 275
249 251 254 257 257 258 259 260 260 261 260 260 260 259 259 260 262 263 264 263 263 264 265 267 268 268 269 268 266 265 263 263 266 268 269 270 273 275 275 273 270 271 273 273
252 253 255 257 258 258 258 260 260 261 261 261 260 259 260 262 264 266 266 264 264 265 267 268 268 268 267 266 266 265 264 264 265 264 266 268 270 272 272 272 271 271 270 269
254 255 256 256 256 258 259 260 261 262 261 261 261 260 260 260 263 265 265 264 263 264 267 268 267 266 266 266 267 266 264 263 263 264 265 267 270 271 271 271 271 270 268 268
255 256 257 257 259 261 261 261 262 262 262 261 260 259 260 261 263 263 262 260 259 261 264 266 267 267 268 270 270 268 266 264 264 265 267 268 269 270 270 270 269 269 269 268
258 258 259 259 262 263 262 263 263 264 262 260 260 260 261 261 262 261 258 256 255 258 260 263 265 267 268 270 270 269 268 267 266 265 267 269 269 270 272 272 270 268 267 266
260 261 261 262 263 264 264 264 264 265 263 261 260 260 260 260 259 257 256 254 255 258 260 262 264 266 268 268 269 269 268 268 268 267 267 269 269 268 267 268 267 265 266 266
262 262 262 261 262 264 266 266 267 265 263 262 261 260 260 261 259 257 255 254 254 257 260 261 262 264 266 266 267 269 270 269 269 269 269 269 269 268 266 265 263 263 264 264
263 264 263 261 261 263 266 265 264 262 262 263 262 261 261 260 258 256 256 255 255 256 258 259 261 261 262 264 265 266 268 269 270 270 268 268 268 266 266 265 264 264 264 263
265 265 264 262 263 265 267 266 265 265 265 265 264 263 262 261 259 257 257 256 256 256 257 258 259 260 261 262 263 264 266 267 268 268 268 268 268 267 265 264 264 265 265 263
263 263 263 263 264 266 267 267 268 268 268 267 266 266 264 263 261 260 259 257 257 257 257 257 258 260 262 263 263 263 263 264 266 267 267 266 266 265 265 262 262 263 264 263
263 264 264 264 267 269 270 271 270 269 270 270 269 268 266 266 265 263 261 260 259 260 259 259 259 259 261 262 262 262 262 262 262 264 264 264 263 262 260 258 258 259 260 262
265 266 267 268 268 271 272 271 271 268 268 269 270 268 267 267 268 267 264 263 261 261 261 260 261 261 261 261 261 261 261 260 260 261 262 263 262 260 258 256 256 258 259 260
Height
5789 5790 5791 5792 5794 5795 5796 5797 5798 5799 5800 5800 5800 5801 5801 5801 5801 5801 5802 5801 5801 5800 5799 5798 5797 5795 5793 5791 5789 5787 5786 5784 5782 5780 5778 5775 5773 5770 5767 5764 5761 5758 5755 5752
5783 5784 5785 5786 5788 5789 5790 5791 5792 5792 5794 5794 5794 5794 5795 5795 5796 5796 5796 5796 5796 5795 5794 5793 5792 5790 5789 5787 5785 5784 5782 5780 5778 5776 5774 5772 5770 5767 5764 5761 5758 5754 5751 5748
5777 5778 5779 5780 5782 5783 5784 5785 5786 5786 5787 5787 5787 5788 5789 5789 5790 5791 5791 5791 5790 5790 5789 5788 5787 5785 5784 5783 5781 5780 5778 5776 5774 5773 5771 5768 5766 5763 5760 5757 5754 5751 5748 5745
5770 5772 5772 5776 5776 5777 5778 5778 5779 5779 5779 5780 5781 5782 5783 5783 5784 5785 5785 5785 5784 5784 5783 5783 5781 5780 5779 5778 5777 5775 5774 5772 5770 5768 5767 5765 5762 5759 5756 5754 5751 5748 5745 5742
5763 5764 5765 5767 5769 5770 5771 5771 5772 5773 5773 5774 5774 5775 5776 5776 5777 5778 5778 5778 5778 5778 5777 5777 5776 5775 5774 5773 5772 5770 5769 5768 5766 5764 5762 5760 5758 5755 5752 5750 5747 5745 5742 5739
5756 5758 5759 5760 5762 5762 5764 5764 5765 5765 5766 5767 5768 5768 5769 5769 5770 5771 5771 5771 5771 5771 5771 5770 5770 5769 5769 5768 5767 5765 5764 5763 5761 5759 5758 5756 5753 5751 5748 5746 5743 5741 5738 5735
5749 5750 5750 5753 5754 5756 5758 5758 5758 5758 5759 5760 5760 5762 5762 5762 5763 5763 5763 5764 5764 5764 5764 5764 5763 5763 5763 5762 5761 5760 5758 5757 5756 5754 5753 5751 5749 5746 5744 5741 5739 5736 5734 5732
5742 5743 5745 5746 5747 5749 5750 5750 5750 5751 5752 5752 5753 5754 5754 5755 5755 5755 5756 5756 5756 5757 5757 5757 5757 5756 5756 5756 5755 5754 5753 5752 5750 5749 5747 5746 5744 5742 5739 5737 5734 5732 5730 5728
5735 5737 5737 5738 5739 5740 5741 5742 5743 5744 5744 5745 5746 5746 5747 5747 5748 5748 5748 5749 5749 5749 5749 5749 5749 5749 5749 5749 5748 5748 5747 5746 5744 5743 5742 5740 5738 5736 5734 5732 5730 5728 5726 5724
5726 5727 5729 5730 5732 5733 5734 5735 5736 5736 5737 5738 5738 5739 5739 5740 5740 5740 5741 5741 5741 5741 5742 5742 5742 5741 5741 5741 5741 5741 5740 5739 5738 5737 5736 5734 5733 5731 5729 5727 5725 5723 5722 5721
5718 5720 5721 5723 5724 5725 5727 5728 5728 5729 5729 5730 5731 5731 5732 5732 5732 5733 5733 5733 5733 5734 5734 5734 5734 5734 5733 5734 5734 5734 5733 5732 5731 5730 5729 5728 5726 5725 5723 5722 5720 5719 5718 5716
5711 5712 5714 5715 5716 5718 5719 5720 5721 5722 5722 5723 5723 5724 5724 5724 5725 5725 5725 5725 5725 5725 5726 5726 5726 5726 5726 5726 5726 5726 5726 5725 5724 5723 5722 5721 5720 5719 5717 5716 5715 5714 5713 5712
5703 5704 5706 5707 5709 5710 5711 5712 5713 5714 5715 5715 5715 5716 5716 5717 5717 5717 5718 5718 5718 5718 5718 5718 5718 5718 5718 5718 5718 5718 5718 5718 5717 5716 5716 5714 5713 5712 5711 5711 5709 5709 5708 5707
5695 5696 5698 5699 5700 5702 5703 5704 5705 5705 5706 5707 5707 5708 5709 5709 5710 5710 5710 5710 5710 5710 5710 5710 5710 5710 5710 5710 5710 5710 5710 5710 5710 5709 5709 5708 5706 5705 5704 5704 5703 5703 5702 5701
5686 5688 5690 5691 5692 5693 5695 5695 5696 5697 5697 5698 5699 5700 5701 5701 5702 5702 5702 5702 5702 5702 5703 5703 5703 5702 5702 5702 5702 5702 5702 5702 5702 5702 5702 5701 5700 5699 5698 5697 5697 5697 5696 5696
5678 5680 5681 5683 5684 5685 5686 5687 5688 5688 5689 5690 5691 5691 5692 5693 5693 5694 5694 5694 5694 5694 5694 5695 5695 5695 5694 5694 5694 5694 5695 5695 5695 5694 5694 5694 5693 5692 5691 5691 5691 5690 5690 5690
5670 5672 5674 5675 5676 5676 5677 5678 5679 5680 5680 5681 5682 5683 5684 5684 5685 5685 5685 5686 5686 5686 5686 5686 5686 5686 5686 5686 5687 5687 5687 5687 5687 5687 5687 5686 5686 5686 5685 5684 5684 5684 5684 5684
5663 5664 5665 5666 5667 5668 5669 5670 5670 5671 5671 5672 5673 5674 5675 5676 5677 5677 5677 5677 5678 5678 5678 5678 5678 5678 5679 5679 5679 5679 5679 5679 5679 5679 5679 5679 5679 5678 5678 5678 5677 5677 5677 5677
5655 5656 5657 5658 5659 5659 5660 5661 5662 5662 5663 5663 5664 5665 5666 5667 5668 5668 5669 5669 5670 5670 5671 5671 5671 5671 5671 5671 5671 5671 5671 5671 5671 5671 5671 5671 5671 5671 5671 5670 5670 5670 5670 5670
5648 5648 5649 5650 5650 5651 5652 5652 5653 5653 5654 5654 5655 5656 5657 5658 5658 5659 5660 5661 5662 5662 5663 5663 5663 5664 5664 5664 5663 5664 5664 5664 5664 5664 5663 5663 5663 5663 5663 5663 5663 5663 5662 5663
5641 5641 5642 5642 5643 5643 5643 5644 5644 5645 5645 5645 5646 5646 5647 5648 5649 5650 5651 5653 5654 5654 5655 5655 5656 5656 5656 5656 5656 5656 5656 5656 5656 5656 5656 5655 5655 5655 5655 5655 5655 5655 5655 5656
5634 5634 5635 5635 5636 5636 5636 5636 5636 5636 5636 5637 5637 5638 5639 5640 5641 5641 5642 5644 5645 5646 5646 5647 5648 5648 5648 5648 5648 5648 5648 5648 5648 5648 5648 5648 5648 5648 5648 5648 5648 5648 5648 5649
5627 5627 5628 5628 5628 5629 5629 5629 5628 5628 5629 5629 5629 5630 5630 5631 5632 5633 5634 5635 5636 5637 5638 5639 5639 5640 5640 5640 5640 5641 5641 5641 5641 5641 5641 5640 5640 5640 5641 5641 5641 5641 5642 5642
5621 5621 5621 5621 5621 5622 5622 5622 5622 5621 5621 5622 5622 5622 5623 5623 5624 5624 5625 5626 5627 5628 5629 5630 5631 5632 5632 5632 5632 5632 5633 5633 5633 5633 5633 5633 5633 5633 5633 5634 5634 5634 5634 5635
5615 5615 5615 5615 5615 5615 5615 5615 5615 5615 5615 5615 5615 5615 5615 5616 5616 5617 5617 5618 5619 5620 5621 5622 5623 5623 5624 5624 5624 5624 5624 5625 5625 5625 5626 5626 5626 5626 5626 5627 5627 5628 5628 5628
5609 5609 5609 5609 5609 5609 5609 5609 5609 5609 5609 5608 5608 5608 5609 5609 5609 5609 5610 5610 5611 5611 5612 5613 5614 5615 5615 5615 5615 5615 5616 5616 5617 5617 5618 5618 5618 5619 5619 5620 5621 5621 5622 5622
5603 5603 5604 5604 5604 5603 5603 5603 5603 5602 5602 5602 5601 5602 5602 5602 5602 5602 5602 5603 5603 5604 5604 5605 5606 5606 5607 5607 5607 5607 5607 5608 5609 5610 5610 5611 5611 5612 5612 5613 5614 5615 5616 5616